Weather History for Tambacounda, Senegal

Change the Weather History Date:

Friday, January 18, 2013

  Actual Average Record
Temperature  
Mean Temperature 77 °F -  
Max Temperature 93 °F 96 °F - ()
Min Temperature 61 °F 65 °F - ()
Cooling Degree Days 12    
Growing Degree Days 27 (Base 50)    
Moisture  
Dew Point 29 °F    
Average Humidity 17    
Maximum Humidity 34    
Minimum Humidity 4    
Precipitation  
Precipitation 0.00 in -5.25 in - ()
Sea Level Pressure  
Sea Level Pressure 29.91 in    
Wind  
Wind Speed 8 mph ()    
Max Wind Speed 16 mph    
Max Gust Speed -    
Visibility 4.9 miles    
Events      
T = Trace of Precipitation, MM = Missing Value Source: Averaged Metar Reports

Daily Weather History Graph

Daily Weather History Graph

Search for Another Location

Airport:

Trip Planner

Search our weather history database for the weather conditions in past years. The results will help you decide how hot, cold, wet, or windy it might be!

Date:

Astronomy

Jan. 18, 2013 Rise Set
Actual Time 7:22 AM GMT 6:48 PM GMT
Civil Twilight 6:59 AM GMT 7:10 PM GMT
Nautical Twilight 6:33 AM GMT 7:36 PM GMT
Astronomical Twilight 6:07 AM GMT 8:02 PM GMT
Moon 12:13 PM GMT (1/18) 12:11 AM GMT (1/18)
Length of Visible Light 12h 11m
Length of Day
11h 25m
Waxing Crescent, 45% of the Moon is Illuminated
Jan 18
Waxing Crescent
Jan 18
First Quarter
Jan 27
Full
Feb 3
Last Quarter
Feb 10
New

Hourly Weather History & Observations

Time (GMT) Temp. Dew Point Humidity Pressure Visibility Wind Dir Wind Speed Gust Speed Precip Events Conditions
12:00 AM 70 °F 34 °F 16% 29.94 in 5 mi NE 6.9 mph - -   Clear
12:00 AM 69.8 °F 33.8 °F 27% 29.92 in 5.0 mi NE 6.9 mph - N/A   Unknown
1:00 AM 69.8 °F 30.2 °F 23% 29.92 in 5.0 mi NE 9.2 mph - N/A   Unknown
3:00 AM 69.8 °F 24.8 °F 18% 29.92 in 5.0 mi NE 9.2 mph - N/A   Unknown
4:00 AM 69.8 °F 24.8 °F 18% 29.92 in 5.0 mi NE 6.9 mph - N/A   Unknown
6:00 AM 67 °F 22 °F 9% 29.93 in 5 mi ENE 9.2 mph - -   Widespread Dust
6:00 AM 66.2 °F 21.2 °F 18% 29.92 in 5.0 mi NE 9.2 mph - N/A   Unknown
7:00 AM 64.4 °F 21.2 °F 19% 29.95 in 5.0 mi NE 9.2 mph - N/A   Unknown
8:00 AM 64.4 °F 23.0 °F 21% 29.95 in 5.0 mi ENE 6.9 mph - N/A   Unknown
9:00 AM 69.8 °F 21.2 °F 16% 29.98 in 5.0 mi East 11.5 mph - N/A   Unknown
10:00 AM 75.2 °F 44.6 °F 34% 29.98 in 3.7 mi East 16.1 mph - N/A   Unknown
11:00 AM 80.6 °F 24.8 °F 13% 29.95 in 5.0 mi East 16.1 mph - N/A   Unknown
12:00 PM 87 °F 22 °F 4% 29.94 in 5 mi East 13.8 mph - -   Widespread Dust
1:00 PM - - N/A% 29.92 in 5.0 mi East 11.5 mph - N/A   Unknown
3:00 PM 93.2 °F 28.4 °F 10% 29.83 in 5.0 mi ENE 9.2 mph - N/A   Unknown
4:00 PM 93.2 °F 28.4 °F 10% 29.83 in 5.0 mi NE 9.2 mph - N/A   Unknown
5:00 PM 93.2 °F 30.2 °F 11% 29.83 in 5.0 mi NE 11.5 mph - N/A   Unknown
6:00 PM 91.4 °F 33.8 °F 13% 29.86 in 5.0 mi NNE 9.2 mph - N/A   Unknown
8:00 PM 82.4 °F 37.4 °F 20% 29.89 in 5.0 mi NNE 6.9 mph - N/A   Unknown
9:00 PM 78.8 °F 35.6 °F 21% 29.92 in 5.0 mi NNE 6.9 mph - N/A   Unknown
10:00 PM 75.2 °F 33.8 °F 22% 29.89 in 5.0 mi North 6.9 mph - N/A   Unknown
11:00 PM 75.2 °F 30.2 °F 19% 29.92 in 5.0 mi NE 6.9 mph - N/A   Unknown